Regional Weather Roundup
Issued by NWS

Home | Current Version | Previous Version | Graphics & Text | Print | Product List | Glossary On
Versions: 1 2 3 4 5 6 7 8 9 10 11 12 13 14 15 16 17 18 19 20 21 22 23 24 25 26 27 28 29 30 31 32 33 34 35 36 37 38 39 40 41 42 43 44 45 46 47 48 49 50
234
ASUS44 KJAN 232210
RWRMS

MISSISSIPPI HOURLY WEATHER ROUNDUP
NATIONAL WEATHER SERVICE JACKSON MS
500 PM CDT WED APR 23 2014

NOTE: "FAIR: INDICATES FEW OR NO CLOUDS BELOW 12,000 FEET WITH NO
SIGNIFICANT WEATHER AND/OR OBSTRUCTIONS TO VISIBILITY.

MSZ001>002-007>008-010>013-018>021-025>028-034>036-232300-
NORTHWEST MISSISSIPPI

CITY           SKY/WX    TMP DP  RH WIND       PRES   REMARKS
CLARKSDALE       N/A     77  41  27 N5        29.94S
CLEVELAND      FAIR      77  42  28 CALM      29.92F
GREENWOOD      SUNNY     80  38  22 N9        29.92F
GREENVILLE     SUNNY     79  41  25 VRB7      29.92F
GRENADA        FAIR      77  43  29 SE5       29.93S
OLIVE BRANCH   SUNNY     75  37  25 E5        29.94F
OXFORD         LGT RAIN  75  34  22 NE5       29.95F
TUNICA         CLEAR     77  41  27 NE6       29.94F
$$

MSZ003>006-009-014>017-022>024-029>033-037>039-232300-
NORTHEAST MISSISSIPPI

CITY           SKY/WX    TMP DP  RH WIND       PRES   REMARKS
BELMONT        FAIR      74  40  29 NE6       29.94F
COLUMBUS AFB   SUNNY     79  39  23 NW7       29.92F
CORINTH        FAIR      75  32  20 N7        29.95S
GOLDN TRIANGLE SUNNY     79  45  29 NW5       29.95F
STARKVILLE     FAIR      77  36  22 N3        29.93S
TUPELO         SUNNY     77  38  24 VRB5      29.93F
$$

MSZ040-058-232300-
CENTRAL MISSISSIPPI

CITY           SKY/WX    TMP DP  RH WIND       PRES   REMARKS
JACKSON INTL   SUNNY     81  48  31 N6        29.91F
JACKSON HAWKNS SUNNY     81  43  26 CALM      29.92F
MERIDIAN KEY   SUNNY     80  50  34 W3        29.91F
MERIDIAN NAS   SUNNY     80  45  28 N5        29.92F
RAYMOND        FAIR      81  75  83 W3        29.91F
VICKSBURG      SUNNY     81  40  23 NE3       29.91F
$$

MSZ059>079-232300-
SOUTH MISSISSIPPI

CITY           SKY/WX    TMP DP  RH WIND       PRES   REMARKS
BROOKHAVEN     FAIR      81  45  28 CALM      29.92F
HATTIESBURG    MOSUNNY   84  54  35 CALM      29.89F
MCCOMB         SUNNY     82  45  27 VRB5      29.90F
NATCHEZ        SUNNY     81  46  30 NW5       29.91F
PINE BELT      PTSUNNY   81  52  36 SW3       29.91F
$$

MSZ080>082-232300-
COASTAL MISSISSIPPI

CITY           SKY/WX    TMP DP  RH WIND       PRES   REMARKS
BILOXI         SUNNY     75  67  76 SW13      29.90S
PASCAGOULA     SUNNY     78  62  57 SW8       29.89F
GULFPORT       SUNNY     79  61  53 SW9       29.89F
$$



USA.gov is the U.S. government's official web portal to all federal, state and local government web resources and services.